Location: Buckeye Ditch
(40.9104°N, 122.9517°W)
Time: 19:34:43
(UTC+00:00)

BlueWalker 3 - Pass Details

Date: 02 July 2024
Orbit: 480 x 491 km, 53.2° (Epoch: 24 July)

Event Time Altitude Azimuth Distance (km) Brightness Sun altitude
Rises 06:36:35 0° 311° (NW) 2,541 6.6 -22.1°
Reaches altitude 10° 06:38:47 10° 315° (NW) 1,658 5.5 -22.2°
Maximum altitude 06:42:28 58° 36° (NE) 562 2.2 -22.5°
Enters shadow 06:42:30 58° 37° (NE) 562 2.2 -22.5°
